• In Russia
  • List of Countries
  • For 7 days
  • Water Temperature
  • Satellite Maps
  • Weather Map
  • Weather Widgets
  • user-avatar
    Login

    Hourly Weather Kerns

    Today, 22 January, Sunday

    Time Temperature Precipitation Wind Pressure Humidity
    00:00 +26°C° 0.2 mm 1 mps 756 mmHg 97%
    01:00 +26°C° 0.2 mm 1 mps 755 mmHg 97%
    02:00 +26°C° 0 mm 1 mps 755 mmHg 97%
    03:00 +25°C° 0 mm 1 mps 755 mmHg 97%
    04:00 +25°C° 0 mm 1 mps 755 mmHg 95%
    05:00 +26°C° 0 mm 1 mps 755 mmHg 92%
    06:00 +27°C° 0 mm 1 mps 755 mmHg 90%
    07:00 +28°C° 0 mm 1 mps 756 mmHg 87%
    08:00 +30°C° 0 mm 2 mps 756 mmHg 78%
    09:00 +32°C° 0 mm 2 mps 756 mmHg 69%
    10:00 +37°C° 0 mm 2 mps 756 mmHg 58%
    11:00 +37°C° 0.1 mm 2 mps 756 mmHg 58%
    12:00 +37°C° 0.1 mm 3 mps 755 mmHg 58%
    13:00 +37°C° 0.1 mm 4 mps 755 mmHg 58%
    14:00 +36°C° 0.2 mm 4 mps 755 mmHg 61%
    15:00 +36°C° 0.2 mm 4 mps 755 mmHg 63%
    16:00 +35°C° 0 mm 3 mps 755 mmHg 66%
    17:00 +34°C° 0 mm 3 mps 755 mmHg 74%
    18:00 +31°C° 0 mm 3 mps 755 mmHg 81%
    19:00 +29°C° 0 mm 3 mps 755 mmHg 89%
    20:00 +29°C° 0 mm 2 mps 756 mmHg 91%
    21:00 +28°C° 0 mm 2 mps 756 mmHg 93%
    22:00 +28°C° 0 mm 2 mps 757 mmHg 96%
    23:00 +28°C° 0 mm 2 mps 757 mmHg 96%

    Tomorrow, 23 January, Monday

    Time Temperature Precipitation Wind Pressure Humidity
    00:00 +28°C° 0 mm 2 mps 756 mmHg 96%
    01:00 +28°C° 0 mm 2 mps 756 mmHg 96%
    02:00 +27°C° 0 mm 2 mps 756 mmHg 96%
    03:00 +27°C° 0 mm 3 mps 756 mmHg 96%
    04:00 +27°C° 0 mm 3 mps 755 mmHg 97%
    05:00 +27°C° 0 mm 3 mps 756 mmHg 96%
    06:00 +28°C° 0 mm 3 mps 756 mmHg 94%
    07:00 +28°C° 0 mm 3 mps 756 mmHg 93%
    08:00 +29°C° 0.2 mm 3 mps 757 mmHg 88%
    09:00 +30°C° 0.2 mm 3 mps 757 mmHg 84%
    10:00 +31°C° 0.2 mm 3 mps 757 mmHg 79%
    11:00 +33°C° 0.1 mm 3 mps 757 mmHg 72%
    12:00 +34°C° 0.1 mm 4 mps 756 mmHg 65%
    13:00 +35°C° 0.1 mm 4 mps 756 mmHg 58%
    14:00 +35°C° 0 mm 4 mps 756 mmHg 58%
    15:00 +35°C° 0 mm 4 mps 755 mmHg 58%
    16:00 +35°C° 0 mm 4 mps 755 mmHg 58%
    17:00 +33°C° 0 mm 4 mps 755 mmHg 67%
    18:00 +30°C° 0 mm 3 mps 756 mmHg 77%
    19:00 +28°C° 0 mm 3 mps 756 mmHg 86%
    20:00 +28°C° 0 mm 3 mps 757 mmHg 89%
    21:00 +27°C° 0 mm 3 mps 757 mmHg 92%
    22:00 +26°C° 0 mm 2 mps 758 mmHg 96%
    23:00 +26°C° 0.3 mm 2 mps 757 mmHg 96%

    Day after tomorrow, 24 January, Tuesday

    Time Temperature Precipitation Wind Pressure Humidity
    00:00 +26°C° 0.3 mm 2 mps 757 mmHg 97%
    01:00 +26°C° 0.3 mm 2 mps 757 mmHg 98%
    02:00 +26°C° 0.2 mm 2 mps 757 mmHg 98%
    03:00 +27°C° 0.2 mm 2 mps 756 mmHg 98%
    04:00 +27°C° 0.2 mm 3 mps 756 mmHg 98%
    05:00 +27°C° 0.2 mm 3 mps 756 mmHg 96%
    06:00 +27°C° 0.2 mm 3 mps 757 mmHg 95%
    07:00 +27°C° 0.2 mm 3 mps 757 mmHg 93%
    08:00 +29°C° 0.3 mm 3 mps 757 mmHg 84%
    09:00 +31°C° 0.3 mm 3 mps 758 mmHg 76%
    10:00 +34°C° 0.3 mm 3 mps 758 mmHg 67%
    11:00 +34°C° 0.2 mm 3 mps 757 mmHg 66%
    12:00 +35°C° 0.2 mm 3 mps 757 mmHg 64%
    13:00 +35°C° 0.2 mm 4 mps 756 mmHg 63%
    14:00 +35°C° 0.1 mm 4 mps 756 mmHg 63%
    15:00 +35°C° 0.1 mm 4 mps 755 mmHg 62%
    16:00 +35°C° 0.1 mm 4 mps 755 mmHg 62%
    17:00 +33°C° 0.2 mm 3 mps 756 mmHg 70%
    18:00 +30°C° 0.2 mm 3 mps 756 mmHg 79%
    19:00 +29°C° 0.2 mm 3 mps 757 mmHg 87%
    20:00 +28°C° 0.3 mm 3 mps 757 mmHg 91%
    21:00 +27°C° 0.3 mm 2 mps 758 mmHg 94%
    22:00 +27°C° 0.3 mm 2 mps 758 mmHg 98%
    23:00 +26°C° 0.4 mm 2 mps 758 mmHg 98%

    25 January, Wednesday

    Time Temperature Precipitation Wind Pressure Humidity
    00:00 +26°C° 0.4 mm 2 mps 757 mmHg 98%
    01:00 +26°C° 0.4 mm 2 mps 757 mmHg 98%
    02:00 +26°C° 0.1 mm 2 mps 757 mmHg 97%
    03:00 +26°C° 0.1 mm 2 mps 757 mmHg 96%
    04:00 +27°C° 0.1 mm 2 mps 756 mmHg 95%
    05:00 +27°C° 0.2 mm 3 mps 757 mmHg 94%
    06:00 +27°C° 0.2 mm 3 mps 757 mmHg 93%
    07:00 +27°C° 0.2 mm 3 mps 758 mmHg 92%
    08:00 +29°C° 0.3 mm 3 mps 758 mmHg 83%
    09:00 +31°C° 0.3 mm 3 mps 758 mmHg 75%
    10:00 +34°C° 0.3 mm 3 mps 758 mmHg 66%
    11:00 +34°C° 0.2 mm 3 mps 758 mmHg 66%
    12:00 +35°C° 0.2 mm 4 mps 757 mmHg 66%
    13:00 +35°C° 0.2 mm 4 mps 756 mmHg 66%
    14:00 +35°C° 0.4 mm 4 mps 756 mmHg 66%
    15:00 +35°C° 0.4 mm 4 mps 756 mmHg 67%
    16:00 +34°C° 0.4 mm 3 mps 755 mmHg 68%
    17:00 +33°C° 0 mm 3 mps 756 mmHg 74%
    18:00 +30°C° 0 mm 3 mps 756 mmHg 81%
    19:00 +29°C° 0 mm 3 mps 756 mmHg 87%
    20:00 +28°C° 0.3 mm 3 mps 757 mmHg 91%
    21:00 +28°C° 0.3 mm 2 mps 757 mmHg 94%
    22:00 +27°C° 0.3 mm 2 mps 758 mmHg 98%
    23:00 +27°C° 0.1 mm 2 mps 757 mmHg 97%

    26 January, Thursday

    Time Temperature Precipitation Wind Pressure Humidity
    00:00 +27°C° 0.1 mm 2 mps 757 mmHg 96%
    01:00 +27°C° 0.1 mm 2 mps 756 mmHg 95%
    02:00 +27°C° 0.2 mm 2 mps 756 mmHg 96%
    03:00 +26°C° 0.2 mm 2 mps 756 mmHg 96%
    04:00 +26°C° 0.2 mm 3 mps 756 mmHg 97%
    05:00 +26°C° 0.4 mm 3 mps 756 mmHg 95%
    06:00 +26°C° 0.4 mm 3 mps 757 mmHg 94%
    07:00 +27°C° 0.4 mm 3 mps 757 mmHg 92%
    08:00 +29°C° 0.2 mm 3 mps 757 mmHg 83%
    09:00 +31°C° 0.2 mm 3 mps 757 mmHg 75%
    10:00 +34°C° 0.2 mm 4 mps 757 mmHg 66%
    11:00 +35°C° 0.2 mm 4 mps 757 mmHg 61%
    12:00 +36°C° 0.2 mm 4 mps 756 mmHg 57%
    13:00 +37°C° 0.2 mm 4 mps 756 mmHg 52%
    14:00 +36°C° 0 mm 4 mps 755 mmHg 54%
    15:00 +36°C° 0 mm 4 mps 755 mmHg 55%
    16:00 +35°C° 0 mm 4 mps 754 mmHg 56%
    17:00 +34°C° 0 mm 4 mps 755 mmHg 66%
    18:00 +32°C° 0 mm 4 mps 755 mmHg 76%
    19:00 +29°C° 0 mm 4 mps 756 mmHg 86%
    20:00 +28°C° 0.2 mm 3 mps 756 mmHg 90%
    21:00 +27°C° 0.2 mm 3 mps 757 mmHg 94%
    22:00 +27°C° 0.2 mm 3 mps 757 mmHg 98%
    23:00 +27°C° 0.3 mm 3 mps 757 mmHg 97%

    27 January, Friday

    Time Temperature Precipitation Wind Pressure Humidity
    00:00 +27°C° 0.3 mm 3 mps 756 mmHg 96%
    01:00 +27°C° 0.3 mm 3 mps 756 mmHg 96%
    02:00 +27°C° 0.3 mm 3 mps 756 mmHg 96%
    03:00 +27°C° 0.3 mm 3 mps 756 mmHg 96%
    04:00 +26°C° 0.3 mm 3 mps 755 mmHg 96%
    05:00 +27°C° 0.1 mm 3 mps 756 mmHg 94%
    06:00 +27°C° 0.1 mm 3 mps 756 mmHg 93%
    07:00 +27°C° 0.1 mm 3 mps 757 mmHg 92%
    08:00 +29°C° 0 mm 4 mps 757 mmHg 82%
    09:00 +32°C° 0 mm 4 mps 757 mmHg 73%
    10:00 +34°C° 0 mm 4 mps 757 mmHg 64%
    11:00 +34°C° 0.2 mm 4 mps 756 mmHg 64%
    12:00 +35°C° 0.2 mm 4 mps 756 mmHg 64%
    13:00 +35°C° 0.2 mm 4 mps 755 mmHg 65%
    14:00 +35°C° 0.2 mm 4 mps 755 mmHg 67%
    15:00 +34°C° 0.2 mm 4 mps 755 mmHg 69%
    16:00 +34°C° 0.2 mm 4 mps 754 mmHg 71%
    17:00 +32°C° 0.1 mm 4 mps 755 mmHg 77%
    18:00 +30°C° 0.1 mm 4 mps 756 mmHg 83%
    19:00 +29°C° 0.1 mm 3 mps 756 mmHg 88%
    20:00 +28°C° 0.3 mm 3 mps 757 mmHg 91%
    21:00 +28°C° 0.3 mm 3 mps 757 mmHg 93%
    22:00 +27°C° 0.3 mm 3 mps 757 mmHg 95%
    23:00 +27°C° 0.3 mm 3 mps 757 mmHg 95%
    Show more